Location: Leo
(52.0556°N, 112.3605°W)
Time: 10:13:46
(UTC+00:00)

FO-29 - Pass Details

Date: 07 December 2023
Orbit: 799 x 1322 km, 98.6° (Epoch: 01 March)

Event Time Altitude Azimuth Distance (km) Brightness Sun altitude
Rises 10:50:39 0° 14° (NNE) 4,141 13.1 -40.5°
Reaches altitude 10° 10:53:13 10° 14° (NNE) 3,225 12.4 -40.1°
Enters shadow 10:57:16 37° 13° (NNE) 1,903 11.0 -39.5°
